{"data":{"norad_id":64818,"epoch":"2026-09-21T21:32:48.293088Z","epoch_age_seconds":53702,"freshness":"FRESH","line1":"1 64818U 25151C   26264.89778117  .00000251  00000+0  61910-4 0  9997","line2":"2 64818  51.9024 155.4672 0000957 101.4276 258.6794 14.79931984 64323","mean_motion":14.79931984,"eccentricity":9.57e-5,"inclination_deg":51.9024,"raan_deg":155.4672,"arg_perigee_deg":101.4276,"mean_anomaly_deg":258.6794,"bstar":6.191e-5,"rev_number":6432,"period_min":97.301768971026,"perigee_km":628.86820185952,"apogee_km":630.20947101461,"semimajor_km":7007.6758364371,"source":"CELESTRAK","updated_at":"2026-09-22T09:00:29.973708Z"}}